Location: Heidgraben
(53.7081°N, 9.6576°E)
Time: 23:47:37
(UTC+00:00)

Cosmos 2333 Rocket - Pass Details

Date: 24 October 2020
Orbit: 841 x 861 km, 70.8° (Epoch: 28 November)

Event Time Altitude Azimuth Distance (km) Brightness Sun altitude
Exits shadow 03:14:52 10° 333° (NNW) 2,458 4.5 -25.8°
Maximum altitude 03:17:37 14° 3° (N) 2,207 4.5 -25.4°
Drops below altitude 10° 03:20:33 10° 34° (NE) 2,483 5.2 -25.0°
Sets 03:24:21 0° 59° (ENE) 3,413 6.6 -24.4°
